FENGYUN 2G

Last updated on Jan. 27, 2020, 4:38 a.m. UTC

1 40367U 14090A   20026.93997010 -.00000305  00000-0  00000-0 0  9991
2 40367   1.7477  96.7588 0003967 307.2408 159.3220  1.00262514 18642
UTC
Height (km)
Latitude
Longitude
Inclination
Orbital Period
UTC large
Height (km)
Speed (km/s)
/
Latitude / Longitude
Inclination (degrees)
Orbital Period (minutes)
Azimuth
Elevation
Range (km)
Doppler Factor
iOS Compass Heading
iOS Angle

Next 30 passes for location: Hong Kong

Rise time Rise Azimuth (degrees) Set time Set Azimuth (degrees) Duration Max altitude (degrees)

No matching passes for this satellites